Regional Weather Roundup
Issued by NWS

Home | Current Version | Previous Version | Text Only | Print | Product List | Glossary Off
Versions: 1 2 3 4 5 6 7 8 9 10 11 12 13 14 15 16 17 18 19 20 21 22 23 24 25 26 27 28 29 30 31 32 33 34 35 36 37 38 39 40 41 42 43 44 45 46 47 48 49 50

000
ASUS45 KPSR 260100
RWRAZ

PRELIMINARY ARIZONA REGIONAL HOURLY WEATHER ROUNDUP
NATIONAL WEATHER SERVICE PHOENIX AZ
600 PM MST FRI JUL 25 2014

NOTE: FAIR INDICATES FEW OR NO CLOUDS BELOW 12,000 FEET WITH NO
SIGNIFICANT WEATHER AND/OR OBSTRUCTIONS TO VISIBILITY.

AZZ001>003-036-260200-
NORTHWEST ARIZONA

CITY           SKY/WX    TMP DP  RH WIND       PRES   REMARKS
KINGMAN        PTSUNNY   97  52  21 SW14G24   29.97S THUNDER
$$

AZZ004>008-015-016-018-260200-
NORTH CENTRAL ARIZONA

CITY           SKY/WX    TMP DP  RH WIND       PRES   REMARKS
GRAND CANYON   MOSUNNY   80  45  28 W8G18     30.27R
WILLIAMS       CLOUDY    73  52  46 NW5       30.34S
PRESCOTT       LGT RAIN  68  54  60 SW22      30.16F
FLAGSTAFF      MOSUNNY   77  46  33 NW8G24    30.28R
PAYSON         PTSUNNY   88  46  23 W6        30.13S
PAGE           PTSUNNY   94  46  19 S3        30.01F
$$

AZZ009>014-017-260200-
NORTHEAST ARIZONA

CITY           SKY/WX    TMP DP  RH WIND       PRES   REMARKS
WINSLOW        NOT AVBL
SAINT JOHNS    FAIR      92  40  16 W9        30.10F
WINDOW ROCK    MOSUNNY   88  35  15 W8        30.20S
$$

AZZ023-260200-
GREATER PHOENIX AREA

CITY           SKY/WX    TMP DP  RH WIND       PRES   REMARKS
PHOENIX        CLOUDY    94  63  35 S26G36    29.80R BLWGDUST
BUCKEYE          N/A    102  59  24 SW12      29.78S HX 102
GLENDALE       CLOUDY   106  61  23 S13       29.78S HX 107
LUKE AFB       NOT AVBL
DEER VALLEY    CLOUDY   102  59  24 SW17G24   29.79R HX 102
SCOTTSDALE     CLOUDY   103  60  24 SW10      29.82R HX 104
MESA-GATEWAY   CLOUDY    93  61  33 SW21G37   29.87  BLWGDUST
CHANDLER       PTSUNNY   91  64  40 S25G37    29.85R BLWGDUST
$$

AZZ027-028-260200-
SOUTHWEST MARICOPA COUNTY AND PINAL COUNTY

CITY           SKY/WX    TMP DP  RH WIND       PRES   REMARKS
CASA GRANDE    CLOUDY    81  64  57 S28G36    29.94R
$$

AZZ503-504-507>509-260200-
SOUTHEAST ARIZONA

CITY           SKY/WX    TMP DP  RH WIND       PRES   REMARKS
TUCSON         CLOUDY    82  61  48 S5        30.04R
DAVIS-MONTHAN  CLOUDY    81  62  52 S5        30.03R
NOGALES        CLOUDY    74  64  71 N8        30.08F
SIERRA VISTA   PTSUNNY   79  59  50 NW20      30.13F
SAFFORD        SUNNY    103  40  11 W17G24    29.87S
$$

AZZ020-021-025-026-031-260200-
SOUTHWEST ARIZONA

CITY           SKY/WX    TMP DP  RH WIND       PRES   REMARKS
YUMA           PTSUNNY  108  56  18 S13       29.72S HX 107
$$

CAZ031-033-041-043-047-048-061-260200-
SOUTHERN CALIFORNIA

CITY           SKY/WX    TMP DP  RH WIND       PRES   REMARKS
DOWNTOWN L.A.  MOSUNNY   80  64  58 W3        29.85F
L.A. AIRPORT   PTSUNNY   72  64  76 W10       29.87F
SAN DIEGO      PTSUNNY   74  64  71 SW5       29.89F
BURBANK        MOSUNNY   84  61  45 S9        29.87S
ONTARIO        PTSUNNY   90  61  37 SW15      29.86S
RIVERSIDE      SUNNY     90  62  39 W10G18    29.85S
PALM SPRINGS   MOSUNNY   97  68  38 CALM      29.75F HX 102
EL CENTRO NAS  MOSUNNY  107  66  26 N9        29.68S HX 112
IMPERIAL       MOSUNNY  106  65  26 E9        29.68S HX 110
BLYTHE         SUNNY    109  60  20 SW18      29.70F HX 110
$$

NVZ020-UTZ003-260200-
SOUTHERN NEVADA-UTAH

CITY           SKY/WX    TMP DP  RH WIND       PRES   REMARKS
LAS VEGAS      NOT AVBL
SALT LAKE CITY PTSUNNY   91  36  14 N10       29.93F
$$

NMZ009-TXZ055-260200-
NEW MEXICO-WEST TEXAS

CITY           SKY/WX    TMP DP  RH WIND       PRES   REMARKS
ALBUQUERQUE    MOSUNNY   94  41  16 CALM      30.06F
EL PASO        MOSUNNY   97  45  16 SE8       29.97F
$$


........................KEY........................
SKY/WX - SKY CONDITION/WEATHER
TMP    - TEMPERATURE IN FAHRENHEIT
DP     - DEW POINT IN FAHRENHEIT
RH     - RELATIVE HUMIDITY IN PERCENT
WIND   - DIRECTION AND SPEED IN MILES PER HOUR (MPH)
VRB    - VARIABLE WIND DIRECTION
PRES   - MEAN SEA LEVEL PRESSURE IN INCHES OF MERCURY
         F - FALLING PRESSURE   R - RISING PRESSURE
         S - STEADY PRESSURE
VSB    - VISIBILITY IN MILES
HX     - HEAT INDEX IN FAHRENHEIT
WCI    - WIND CHILL INDEX IN FAHRENHEIT
TC     - TEMPERATURE IN CELSIUS WHICH IS ALSO KNOWN AS
         TEMPERATURE IN CENTIGRADE
AFB    - AIR FORCE BASE
         LUKE AFB IS LUKE AIR FORCE BASE
         DAVIS-MONTHAN IS DAVIS-MONTHAN AIR FORCE BASE
NAS    - NAVAL AIR STATION
         EL CENTRO NAS IS EL CENTRO NAVAL AIR STATION
N/A    - NOT AVAILABLE


USA.gov is the U.S. government's official web portal to all federal, state and local government web resources and services.